iso_date,epoch_date,Year,Hour,Min,DOY,POS_DOY,Lat,Lon,BP,Ts,Ta,has_bp,has_ts,has_ta,BuoyID,Buoy_Type,Buoy_Owner,Logistics,Hemisphere
2017-03-09T04:00:28Z,1489032029,2017,4,0,68.167,68.167,72.76344,-147.28057,1037.63,-999.00,-26.62,yes,no,yes,300234063536320,IMB,CRREL,unknown,North
2017-03-09T04:59:31Z,1489035571,2017,5,0,68.208,68.167,72.76344,-147.28057,1036.87,-999.00,-25.88,yes,no,yes,300234063536320,IMB,CRREL,unknown,North
2017-03-09T06:00:00Z,1489039200,2017,6,0,68.25,68.167,72.76344,-147.28057,1036.05,-999.00,-25.71,yes,no,yes,300234063536320,IMB,CRREL,unknown,North
2017-03-09T07:00:28Z,1489042829,2017,7,0,68.292,68.167,72.76344,-147.28057,1035.65,-999.00,-24.77,yes,no,yes,300234063536320,IMB,CRREL,unknown,North
2017-03-09T07:59:31Z,1489046371,2017,8,0,68.333,68.333,72.77071,-147.29207,1034.43,-999.00,-24.05,yes,no,yes,300234063536320,IMB,CRREL,unknown,North
2017-03-09T09:00:00Z,1489050000,2017,9,0,68.375,68.333,72.77071,-147.29207,1034.02,-999.00,-22.61,yes,no,yes,300234063536320,IMB,CRREL,unknown,North
2017-03-09T10:00:28Z,1489053629,2017,10,0,68.417,68.333,72.77071,-147.29207,1032.25,-999.00,-21.21,yes,no,yes,300234063536320,IMB,CRREL,unknown,North
2017-03-09T10:59:31Z,1489057171,2017,11,0,68.458,68.333,72.77071,-147.29207,1031.44,-999.00,-19.69,yes,no,yes,300234063536320,IMB,CRREL,unknown,North
2017-03-09T12:00:00Z,1489060800,2017,12,0,68.5,68.5,72.78549,-147.31775,1030.14,-999.00,-18.4,yes,no,yes,300234063536320,IMB,CRREL,unknown,North
2017-03-09T13:00:28Z,1489064429,2017,13,0,68.542,68.5,72.78549,-147.31775,1028.58,-999.00,-17.34,yes,no,yes,300234063536320,IMB,CRREL,unknown,North
2017-03-09T13:59:31Z,1489067971,2017,14,0,68.583,68.5,72.78549,-147.31775,1027.76,-999.00,-15.94,yes,no,yes,300234063536320,IMB,CRREL,unknown,North
2017-03-09T15:00:00Z,1489071600,2017,15,0,68.625,68.5,72.78549,-147.31775,1026.54,-999.00,-14.54,yes,no,yes,300234063536320,IMB,CRREL,unknown,North
2017-03-09T16:00:28Z,1489075229,2017,16,0,68.667,68.667,72.80306,-147.2827,1025.39,-999.00,-13.44,yes,no,yes,300234063536320,IMB,CRREL,unknown,North
2017-03-09T16:59:31Z,1489078771,2017,17,0,68.708,68.667,72.80306,-147.2827,1024.64,-999.00,-12.85,yes,no,yes,300234063536320,IMB,CRREL,unknown,North
2017-03-09T18:00:00Z,1489082400,2017,18,0,68.75,68.667,72.80306,-147.2827,1023.84,-999.00,-11.15,yes,no,yes,300234063536320,IMB,CRREL,unknown,North
2017-03-09T19:00:28Z,1489086029,2017,19,0,68.792,68.667,72.80306,-147.2827,1022.75,-999.00,-11.12,yes,no,yes,300234063536320,IMB,CRREL,unknown,North
2017-03-09T19:59:31Z,1489089571,2017,20,0,68.833,68.833,72.81291,-147.25646,1022.2,-999.00,-11.15,yes,no,yes,300234063536320,IMB,CRREL,unknown,North
2017-03-09T21:00:00Z,1489093200,2017,21,0,68.875,68.833,72.81291,-147.25646,1022.13,-999.00,-10.52,yes,no,yes,300234063536320,IMB,CRREL,unknown,North
2017-03-09T22:00:28Z,1489096829,2017,22,0,68.917,68.833,72.81291,-147.25646,1021.73,-999.00,-10.48,yes,no,yes,300234063536320,IMB,CRREL,unknown,North
2017-03-09T22:59:31Z,1489100371,2017,23,0,68.958,68.833,72.81291,-147.25646,1021.65,-999.00,-11.12,yes,no,yes,300234063536320,IMB,CRREL,unknown,North
2017-03-10T00:00:00Z,1489104000,2017,0,0,69.0,69.0,72.81889,-147.24637,1021.93,-999.00,-12.68,yes,no,yes,300234063536320,IMB,CRREL,unknown,North
2017-03-10T01:00:28Z,1489107629,2017,1,0,69.042,69.0,72.81889,-147.24637,1021.93,-999.00,-14.31,yes,no,yes,300234063536320,IMB,CRREL,unknown,North
2017-03-10T01:59:31Z,1489111171,2017,2,0,69.083,69.0,72.81889,-147.24637,1021.93,-999.00,-16.44,yes,no,yes,300234063536320,IMB,CRREL,unknown,North
2017-03-10T03:00:00Z,1489114800,2017,3,0,69.125,69.0,72.81889,-147.24637,1022.2,-999.00,-18.49,yes,no,yes,300234063536320,IMB,CRREL,unknown,North
2017-03-10T04:00:28Z,1489118429,2017,4,0,69.167,69.167,72.81883,-147.24828,1022.61,-999.00,-19.1,yes,no,yes,300234063536320,IMB,CRREL,unknown,North
2017-03-10T04:59:31Z,1489121971,2017,5,0,69.208,69.167,72.81883,-147.24828,1023.15,-999.00,-19.67,yes,no,yes,300234063536320,IMB,CRREL,unknown,North
2017-03-10T06:00:00Z,1489125600,2017,6,0,69.25,69.167,72.81883,-147.24828,1023.09,-999.00,-15.76,yes,no,yes,300234063536320,IMB,CRREL,unknown,North
2017-03-10T07:00:28Z,1489129229,2017,7,0,69.292,69.167,72.81883,-147.24828,1023.29,-999.00,-13.73,yes,no,yes,300234063536320,IMB,CRREL,unknown,North
2017-03-10T07:59:31Z,1489132771,2017,8,0,69.333,69.333,72.81616,-147.23154,1023.9,-999.00,-13.02,yes,no,yes,300234063536320,IMB,CRREL,unknown,North
2017-03-10T09:00:00Z,1489136400,2017,9,0,69.375,69.333,72.81616,-147.23154,1024.17,-999.00,-12.53,yes,no,yes,300234063536320,IMB,CRREL,unknown,North
2017-03-10T10:00:28Z,1489140029,2017,10,0,69.417,69.333,72.81616,-147.23154,1024.51,-999.00,-12.14,yes,no,yes,300234063536320,IMB,CRREL,unknown,North
2017-03-10T10:59:31Z,1489143571,2017,11,0,69.458,69.333,72.81616,-147.23154,1024.38,-999.00,-11.93,yes,no,yes,300234063536320,IMB,CRREL,unknown,North
2017-03-10T12:00:00Z,1489147200,2017,12,0,69.5,69.5,72.81558,-147.23215,1024.65,-999.00,-11.71,yes,no,yes,300234063536320,IMB,CRREL,unknown,North
2017-03-10T13:00:28Z,1489150829,2017,13,0,69.542,69.5,72.81558,-147.23215,1024.64,-999.00,-11.64,yes,no,yes,300234063536320,IMB,CRREL,unknown,North
2017-03-10T13:59:31Z,1489154371,2017,14,0,69.583,69.5,72.81558,-147.23215,1024.37,-999.00,-11.5,yes,no,yes,300234063536320,IMB,CRREL,unknown,North
2017-03-10T15:00:00Z,1489158000,2017,15,0,69.625,69.5,72.81558,-147.23215,1024.64,-999.00,-11.35,yes,no,yes,300234063536320,IMB,CRREL,unknown,North
2017-03-10T16:00:28Z,1489161629,2017,16,0,69.667,69.667,72.81623,-147.23125,1024.44,-999.00,-11.16,yes,no,yes,300234063536320,IMB,CRREL,unknown,North
2017-03-10T16:59:31Z,1489165171,2017,17,0,69.708,69.667,72.81623,-147.23125,1024.44,-999.00,-11.12,yes,no,yes,300234063536320,IMB,CRREL,unknown,North
2017-03-10T18:00:00Z,1489168800,2017,18,0,69.75,69.667,72.81623,-147.23125,1024.1,-999.00,-10.88,yes,no,yes,300234063536320,IMB,CRREL,unknown,North
2017-03-10T19:00:28Z,1489172429,2017,19,0,69.792,69.667,72.81623,-147.23125,1024.1,-999.00,-10.46,yes,no,yes,300234063536320,IMB,CRREL,unknown,North
2017-03-10T19:59:31Z,1489175971,2017,20,0,69.833,69.833,72.8226,-147.2424,1023.83,-999.00,-10.2,yes,no,yes,300234063536320,IMB,CRREL,unknown,North
2017-03-10T21:00:00Z,1489179600,2017,21,0,69.875,69.833,72.8226,-147.2424,1023.83,-999.00,-9.69,yes,no,yes,300234063536320,IMB,CRREL,unknown,North
2017-03-10T22:00:28Z,1489183229,2017,22,0,69.917,69.833,72.8226,-147.2424,1023.49,-999.00,-9.62,yes,no,yes,300234063536320,IMB,CRREL,unknown,North
2017-03-10T22:59:31Z,1489186771,2017,23,0,69.958,69.833,72.8226,-147.2424,1023.15,-999.00,-9.76,yes,no,yes,300234063536320,IMB,CRREL,unknown,North
2017-03-11T00:00:00Z,1489190400,2017,0,0,70.0,70.0,72.83671,-147.26371,1022.42,-999.00,-10.31,yes,no,yes,300234063536320,IMB,CRREL,unknown,North
2017-03-11T01:00:28Z,1489194029,2017,1,0,70.042,70.0,72.83671,-147.26371,1022.2,-999.00,-9.87,yes,no,yes,300234063536320,IMB,CRREL,unknown,North
2017-03-11T01:59:31Z,1489197571,2017,2,0,70.083,70.0,72.83671,-147.26371,1021.46,-999.00,-9.41,yes,no,yes,300234063536320,IMB,CRREL,unknown,North
2017-03-11T03:00:00Z,1489201200,2017,3,0,70.125,70.0,72.83671,-147.26371,1021.11,-999.00,-8.83,yes,no,yes,300234063536320,IMB,CRREL,unknown,North
2017-03-11T04:00:28Z,1489204829,2017,4,0,70.167,70.167,72.85065,-147.27748,1020.31,-999.00,-8.24,yes,no,yes,300234063536320,IMB,CRREL,unknown,North
2017-03-11T04:59:31Z,1489208371,2017,5,0,70.208,70.167,72.85065,-147.27748,1020.03,-999.00,-7.77,yes,no,yes,300234063536320,IMB,CRREL,unknown,North
2017-03-11T06:00:00Z,1489212000,2017,6,0,70.25,70.167,72.85065,-147.27748,1019.76,-999.00,-7.6,yes,no,yes,300234063536320,IMB,CRREL,unknown,North
2017-03-11T07:00:28Z,1489215629,2017,7,0,70.292,70.167,72.85065,-147.27748,1018.94,-999.00,-7.62,yes,no,yes,300234063536320,IMB,CRREL,unknown,North
2017-03-11T07:59:31Z,1489219171,2017,8,0,70.333,70.333,72.85849,-147.24301,1018.87,-999.00,-7.68,yes,no,yes,300234063536320,IMB,CRREL,unknown,North
2017-03-11T09:00:00Z,1489222800,2017,9,0,70.375,70.333,72.85849,-147.24301,1018.53,-999.00,-7.31,yes,no,yes,300234063536320,IMB,CRREL,unknown,North
2017-03-11T10:00:28Z,1489226429,2017,10,0,70.417,70.333,72.85849,-147.24301,1018.26,-999.00,-6.48,yes,no,yes,300234063536320,IMB,CRREL,unknown,North
2017-03-11T10:59:31Z,1489229971,2017,11,0,70.458,70.333,72.85849,-147.24301,1017.99,-999.00,-6.07,yes,no,yes,300234063536320,IMB,CRREL,unknown,North
2017-03-11T12:00:00Z,1489233600,2017,12,0,70.5,70.5,72.8636,-147.21393,1017.39,-999.00,-5.78,yes,no,yes,300234063536320,IMB,CRREL,unknown,North
2017-03-11T13:00:28Z,1489237229,2017,13,0,70.542,70.5,72.8636,-147.21393,1016.77,-999.00,-5.61,yes,no,yes,300234063536320,IMB,CRREL,unknown,North
2017-03-11T13:59:31Z,1489240771,2017,14,0,70.583,70.5,72.8636,-147.21393,1016.56,-999.00,-5.59,yes,no,yes,300234063536320,IMB,CRREL,unknown,North
2017-03-11T15:00:00Z,1489244400,2017,15,0,70.625,70.5,72.8636,-147.21393,1016.5,-999.00,-6.05,yes,no,yes,300234063536320,IMB,CRREL,unknown,North
2017-03-11T16:00:28Z,1489248029,2017,16,0,70.667,70.667,72.86615,-147.18893,1016.24,-999.00,-6.48,yes,no,yes,300234063536320,IMB,CRREL,unknown,North
2017-03-11T16:59:31Z,1489251571,2017,17,0,70.708,70.667,72.86615,-147.18893,1016.49,-999.00,-6.52,yes,no,yes,300234063536320,IMB,CRREL,unknown,North
2017-03-11T18:00:00Z,1489255200,2017,18,0,70.75,70.667,72.86615,-147.18893,1016.24,-999.00,-7.4,yes,no,yes,300234063536320,IMB,CRREL,unknown,North
2017-03-11T19:00:28Z,1489258829,2017,19,0,70.792,70.667,72.86615,-147.18893,1016.22,-999.00,-8.85,yes,no,yes,300234063536320,IMB,CRREL,unknown,North
2017-03-11T19:59:31Z,1489262371,2017,20,0,70.833,70.833,72.86342,-147.14568,1016.29,-999.00,-9.66,yes,no,yes,300234063536320,IMB,CRREL,unknown,North
2017-03-11T21:00:00Z,1489266000,2017,21,0,70.875,70.833,72.86342,-147.14568,1016.77,-999.00,-9.52,yes,no,yes,300234063536320,IMB,CRREL,unknown,North
2017-03-11T22:00:28Z,1489269629,2017,22,0,70.917,70.833,72.86342,-147.14568,1016.91,-999.00,-9.73,yes,no,yes,300234063536320,IMB,CRREL,unknown,North
2017-03-11T22:59:31Z,1489273171,2017,23,0,70.958,70.833,72.86342,-147.14568,1016.91,-999.00,-10.34,yes,no,yes,300234063536320,IMB,CRREL,unknown,North
2017-03-12T00:00:00Z,1489276800,2017,0,0,71.0,71.0,72.8574,-147.11707,1017.04,-999.00,-10.79,yes,no,yes,300234063536320,IMB,CRREL,unknown,North
2017-03-12T01:00:28Z,1489280429,2017,1,0,71.042,71.0,72.8574,-147.11707,1016.98,-999.00,-11.05,yes,no,yes,300234063536320,IMB,CRREL,unknown,North
2017-03-12T01:59:31Z,1489283971,2017,2,0,71.083,71.0,72.8574,-147.11707,1017.31,-999.00,-11.93,yes,no,yes,300234063536320,IMB,CRREL,unknown,North
2017-03-12T03:00:00Z,1489287600,2017,3,0,71.125,71.0,72.8574,-147.11707,1017.66,-999.00,-12.7,yes,no,yes,300234063536320,IMB,CRREL,unknown,North
2017-03-12T04:00:28Z,1489291229,2017,4,0,71.167,71.167,72.85234,-147.08338,1018.27,-999.00,-11.66,yes,no,yes,300234063536320,IMB,CRREL,unknown,North
2017-03-12T04:59:31Z,1489294771,2017,5,0,71.208,71.167,72.85234,-147.08338,1018.67,-999.00,-11.93,yes,no,yes,300234063536320,IMB,CRREL,unknown,North
2017-03-12T06:00:00Z,1489298400,2017,6,0,71.25,71.167,72.85234,-147.08338,1018.67,-999.00,-11.47,yes,no,yes,300234063536320,IMB,CRREL,unknown,North
2017-03-12T07:00:28Z,1489302029,2017,7,0,71.292,71.167,72.85234,-147.08338,1018.87,-999.00,-10.97,yes,no,yes,300234063536320,IMB,CRREL,unknown,North
2017-03-12T07:59:31Z,1489305571,2017,8,0,71.333,71.333,72.84198,-147.05195,1018.94,-999.00,-10.77,yes,no,yes,300234063536320,IMB,CRREL,unknown,North
2017-03-12T09:00:00Z,1489309200,2017,9,0,71.375,71.333,72.84198,-147.05195,1019.75,-999.00,-13.26,yes,no,yes,300234063536320,IMB,CRREL,unknown,North
2017-03-12T10:00:28Z,1489312829,2017,10,0,71.417,71.333,72.84198,-147.05195,1020.77,-999.00,-16.36,yes,no,yes,300234063536320,IMB,CRREL,unknown,North
2017-03-12T10:59:31Z,1489316371,2017,11,0,71.458,71.333,72.84198,-147.05195,1021.18,-999.00,-18.35,yes,no,yes,300234063536320,IMB,CRREL,unknown,North
2017-03-12T12:00:00Z,1489320000,2017,12,0,71.5,71.5,72.83058,-147.04857,1021.45,-999.00,-19.67,yes,no,yes,300234063536320,IMB,CRREL,unknown,North
2017-03-12T13:00:28Z,1489323629,2017,13,0,71.542,71.5,72.83058,-147.04857,1021.66,-999.00,-20.91,yes,no,yes,300234063536320,IMB,CRREL,unknown,North
2017-03-12T13:59:31Z,1489327171,2017,14,0,71.583,71.5,72.83058,-147.04857,1021.66,-999.00,-22.08,yes,no,yes,300234063536320,IMB,CRREL,unknown,North
2017-03-12T15:00:00Z,1489330800,2017,15,0,71.625,71.5,72.83058,-147.04857,1021.52,-999.00,-20.27,yes,no,yes,300234063536320,IMB,CRREL,unknown,North
2017-03-12T16:00:28Z,1489334429,2017,16,0,71.667,71.667,72.82769,-147.02461,1021.39,-999.00,-20.68,yes,no,yes,300234063536320,IMB,CRREL,unknown,North
2017-03-12T16:59:31Z,1489337971,2017,17,0,71.708,71.667,72.82769,-147.02461,1021.12,-999.00,-21.36,yes,no,yes,300234063536320,IMB,CRREL,unknown,North
2017-03-12T18:00:00Z,1489341600,2017,18,0,71.75,71.667,72.82769,-147.02461,1021.18,-999.00,-21.9,yes,no,yes,300234063536320,IMB,CRREL,unknown,North
2017-03-12T19:00:28Z,1489345229,2017,19,0,71.792,71.667,72.82769,-147.02461,1020.92,-999.00,-20.94,yes,no,yes,300234063536320,IMB,CRREL,unknown,North
2017-03-12T19:59:31Z,1489348771,2017,20,0,71.833,71.833,72.82587,-146.99146,1020.36,-999.00,-20.18,yes,no,yes,300234063536320,IMB,CRREL,unknown,North
2017-03-12T21:00:00Z,1489352400,2017,21,0,71.875,71.833,72.82587,-146.99146,1020.03,-999.00,-20.21,yes,no,yes,300234063536320,IMB,CRREL,unknown,North
2017-03-12T22:00:28Z,1489356029,2017,22,0,71.917,71.833,72.82587,-146.99146,1019.48,-999.00,-19.61,yes,no,yes,300234063536320,IMB,CRREL,unknown,North
2017-03-12T22:59:31Z,1489359571,2017,23,0,71.958,71.833,72.82587,-146.99146,1018.95,-999.00,-19.64,yes,no,yes,300234063536320,IMB,CRREL,unknown,North
2017-03-13T00:00:00Z,1489363200,2017,0,0,72.0,72.0,72.8246,-146.94051,1017.99,-999.00,-19.55,yes,no,yes,300234063536320,IMB,CRREL,unknown,North
2017-03-13T01:00:28Z,1489366829,2017,1,0,72.042,72.0,72.8246,-146.94051,1017.45,-999.00,-19.69,yes,no,yes,300234063536320,IMB,CRREL,unknown,North
2017-03-13T01:59:31Z,1489370371,2017,2,0,72.083,72.0,72.8246,-146.94051,1016.78,-999.00,-20.04,yes,no,yes,300234063536320,IMB,CRREL,unknown,North
2017-03-13T03:00:00Z,1489374000,2017,3,0,72.125,72.0,72.8246,-146.94051,1016.36,-999.00,-20.8,yes,no,yes,300234063536320,IMB,CRREL,unknown,North
2017-03-13T04:00:28Z,1489377629,2017,4,0,72.167,72.167,72.81777,-146.89129,1016.1,-999.00,-21.48,yes,no,yes,300234063536320,IMB,CRREL,unknown,North
2017-03-13T04:59:31Z,1489381171,2017,5,0,72.208,72.167,72.81777,-146.89129,1015.75,-999.00,-21.99,yes,no,yes,300234063536320,IMB,CRREL,unknown,North
2017-03-13T06:00:00Z,1489384800,2017,6,0,72.25,72.167,72.81777,-146.89129,1015.14,-999.00,-22.42,yes,no,yes,300234063536320,IMB,CRREL,unknown,North
2017-03-13T07:00:28Z,1489388429,2017,7,0,72.292,72.167,72.81777,-146.89129,1014.59,-999.00,-22.73,yes,no,yes,300234063536320,IMB,CRREL,unknown,North
2017-03-13T07:59:31Z,1489391971,2017,8,0,72.333,72.333,72.8171,-146.88256,1013.98,-999.00,-23.08,yes,no,yes,300234063536320,IMB,CRREL,unknown,North
2017-03-13T09:00:00Z,1489395600,2017,9,0,72.375,72.333,72.8171,-146.88256,1013.78,-999.00,-23.12,yes,no,yes,300234063536320,IMB,CRREL,unknown,North
2017-03-13T10:00:28Z,1489399229,2017,10,0,72.417,72.333,72.8171,-146.88256,1013.51,-999.00,-22.86,yes,no,yes,300234063536320,IMB,CRREL,unknown,North
2017-03-13T10:59:31Z,1489402771,2017,11,0,72.458,72.333,72.8171,-146.88256,1013.11,-999.00,-23.23,yes,no,yes,300234063536320,IMB,CRREL,unknown,North
2017-03-13T12:00:00Z,1489406400,2017,12,0,72.5,72.5,72.81589,-146.87545,1012.97,-999.00,-23.88,yes,no,yes,300234063536320,IMB,CRREL,unknown,North
2017-03-13T13:00:28Z,1489410029,2017,13,0,72.542,72.5,72.81589,-146.87545,1012.56,-999.00,-24.04,yes,no,yes,300234063536320,IMB,CRREL,unknown,North
2017-03-13T13:59:31Z,1489413571,2017,14,0,72.583,72.5,72.81589,-146.87545,1012.22,-999.00,-24.23,yes,no,yes,300234063536320,IMB,CRREL,unknown,North
2017-03-13T15:00:00Z,1489417200,2017,15,0,72.625,72.5,72.81589,-146.87545,1011.89,-999.00,-24.96,yes,no,yes,300234063536320,IMB,CRREL,unknown,North
2017-03-13T16:00:28Z,1489420829,2017,16,0,72.667,72.667,72.81143,-146.85992,1011.55,-999.00,-25.17,yes,no,yes,300234063536320,IMB,CRREL,unknown,North
2017-03-13T16:59:31Z,1489424371,2017,17,0,72.708,72.667,72.81143,-146.85992,1011.55,-999.00,-25.23,yes,no,yes,300234063536320,IMB,CRREL,unknown,North
2017-03-13T18:00:00Z,1489428000,2017,18,0,72.75,72.667,72.81143,-146.85992,1011.41,-999.00,-25.28,yes,no,yes,300234063536320,IMB,CRREL,unknown,North
2017-03-13T19:00:28Z,1489431629,2017,19,0,72.792,72.667,72.81143,-146.85992,1011.21,-999.00,-24.8,yes,no,yes,300234063536320,IMB,CRREL,unknown,North
2017-03-13T19:59:31Z,1489435171,2017,20,0,72.833,72.833,72.80752,-146.82277,1011.0,-999.00,-24.14,yes,no,yes,300234063536320,IMB,CRREL,unknown,North
2017-03-13T21:00:00Z,1489438800,2017,21,0,72.875,72.833,72.80752,-146.82277,1011.07,-999.00,-23.68,yes,no,yes,300234063536320,IMB,CRREL,unknown,North
2017-03-13T22:00:28Z,1489442429,2017,22,0,72.917,72.833,72.80752,-146.82277,1011.2,-999.00,-23.32,yes,no,yes,300234063536320,IMB,CRREL,unknown,North
2017-03-13T22:59:31Z,1489445971,2017,23,0,72.958,72.833,72.80752,-146.82277,1011.07,-999.00,-23.02,yes,no,yes,300234063536320,IMB,CRREL,unknown,North
2017-03-14T00:00:00Z,1489449600,2017,0,0,73.0,73.0,72.80422,-146.7959,1011.0,-999.00,-22.8,yes,no,yes,300234063536320,IMB,CRREL,unknown,North
2017-03-14T01:00:28Z,1489453229,2017,1,0,73.042,73.0,72.80422,-146.7959,1010.8,-999.00,-22.95,yes,no,yes,300234063536320,IMB,CRREL,unknown,North
2017-03-14T01:59:31Z,1489456771,2017,2,0,73.083,73.0,72.80422,-146.7959,1010.93,-999.00,-23.39,yes,no,yes,300234063536320,IMB,CRREL,unknown,North
2017-03-14T03:00:00Z,1489460400,2017,3,0,73.125,73.0,72.80422,-146.7959,1010.86,-999.00,-23.8,yes,no,yes,300234063536320,IMB,CRREL,unknown,North
2017-03-14T04:00:28Z,1489464029,2017,4,0,73.167,73.167,72.79981,-146.76578,1010.79,-999.00,-23.84,yes,no,yes,300234063536320,IMB,CRREL,unknown,North
2017-03-14T04:59:31Z,1489467571,2017,5,0,73.208,73.167,72.79981,-146.76578,1010.79,-999.00,-23.88,yes,no,yes,300234063536320,IMB,CRREL,unknown,North
2017-03-14T06:00:00Z,1489471200,2017,6,0,73.25,73.167,72.79981,-146.76578,1010.79,-999.00,-22.53,yes,no,yes,300234063536320,IMB,CRREL,unknown,North
2017-03-14T07:00:28Z,1489474829,2017,7,0,73.292,73.167,72.79981,-146.76578,1011.0,-999.00,-22.21,yes,no,yes,300234063536320,IMB,CRREL,unknown,North
2017-03-14T07:59:31Z,1489478371,2017,8,0,73.333,73.333,72.79841,-146.74658,1011.27,-999.00,-22.89,yes,no,yes,300234063536320,IMB,CRREL,unknown,North
2017-03-14T09:00:00Z,1489482000,2017,9,0,73.375,73.333,72.79841,-146.74658,1011.21,-999.00,-23.49,yes,no,yes,300234063536320,IMB,CRREL,unknown,North
2017-03-14T10:00:28Z,1489485629,2017,10,0,73.417,73.333,72.79841,-146.74658,1011.34,-999.00,-23.84,yes,no,yes,300234063536320,IMB,CRREL,unknown,North
2017-03-14T10:59:31Z,1489489171,2017,11,0,73.458,73.333,72.79841,-146.74658,1011.0,-999.00,-24.1,yes,no,yes,300234063536320,IMB,CRREL,unknown,North
2017-03-14T12:00:00Z,1489492800,2017,12,0,73.5,73.5,72.79783,-146.72021,1011.0,-999.00,-25.34,yes,no,yes,300234063536320,IMB,CRREL,unknown,North
2017-03-14T13:00:28Z,1489496429,2017,13,0,73.542,73.5,72.79783,-146.72021,1010.8,-999.00,-26.2,yes,no,yes,300234063536320,IMB,CRREL,unknown,North
2017-03-14T13:59:31Z,1489499971,2017,14,0,73.583,73.5,72.79783,-146.72021,1010.79,-999.00,-26.84,yes,no,yes,300234063536320,IMB,CRREL,unknown,North
2017-03-14T15:00:00Z,1489503600,2017,15,0,73.625,73.5,72.79783,-146.72021,1010.79,-999.00,-27.23,yes,no,yes,300234063536320,IMB,CRREL,unknown,North
2017-03-14T16:00:28Z,1489507229,2017,16,0,73.667,73.667,72.79764,-146.72432,1010.79,-999.00,-27.2,yes,no,yes,300234063536320,IMB,CRREL,unknown,North
2017-03-14T16:59:31Z,1489510771,2017,17,0,73.708,73.667,72.79764,-146.72432,1010.79,-999.00,-26.99,yes,no,yes,300234063536320,IMB,CRREL,unknown,North
2017-03-14T18:00:00Z,1489514400,2017,18,0,73.75,73.667,72.79764,-146.72432,1010.86,-999.00,-26.37,yes,no,yes,300234063536320,IMB,CRREL,unknown,North
2017-03-14T19:00:28Z,1489518029,2017,19,0,73.792,73.667,72.79764,-146.72432,1010.79,-999.00,-25.57,yes,no,yes,300234063536320,IMB,CRREL,unknown,North
2017-03-14T19:59:31Z,1489521571,2017,20,0,73.833,73.833,72.79758,-146.72453,1011.07,-999.00,-25.2,yes,no,yes,300234063536320,IMB,CRREL,unknown,North
2017-03-14T21:00:00Z,1489525200,2017,21,0,73.875,73.833,72.79758,-146.72453,1011.2,-999.00,-24.56,yes,no,yes,300234063536320,IMB,CRREL,unknown,North
2017-03-14T22:00:28Z,1489528829,2017,22,0,73.917,73.833,72.79758,-146.72453,1011.34,-999.00,-23.3,yes,no,yes,300234063536320,IMB,CRREL,unknown,North
2017-03-14T22:59:31Z,1489532371,2017,23,0,73.958,73.833,72.79758,-146.72453,1011.47,-999.00,-22.67,yes,no,yes,300234063536320,IMB,CRREL,unknown,North
2017-03-15T00:00:00Z,1489536000,2017,0,0,74.0,74.0,72.79746,-146.72473,1011.34,-999.00,-22.51,yes,no,yes,300234063536320,IMB,CRREL,unknown,North
2017-03-15T01:00:28Z,1489539629,2017,1,0,74.042,74.0,72.79746,-146.72473,1011.41,-999.00,-22.45,yes,no,yes,300234063536320,IMB,CRREL,unknown,North
2017-03-15T01:59:31Z,1489543171,2017,2,0,74.083,74.0,72.79746,-146.72473,1011.82,-999.00,-23.4,yes,no,yes,300234063536320,IMB,CRREL,unknown,North
2017-03-15T03:00:00Z,1489546800,2017,3,0,74.125,74.0,72.79746,-146.72473,1011.88,-999.00,-24.25,yes,no,yes,300234063536320,IMB,CRREL,unknown,North
2017-03-15T04:00:28Z,1489550429,2017,4,0,74.167,74.167,72.79721,-146.72471,1012.43,-999.00,-25.44,yes,no,yes,300234063536320,IMB,CRREL,unknown,North
2017-03-15T04:59:31Z,1489553971,2017,5,0,74.208,74.167,72.79721,-146.72471,1012.83,-999.00,-25.88,yes,no,yes,300234063536320,IMB,CRREL,unknown,North
2017-03-15T06:00:00Z,1489557600,2017,6,0,74.25,74.167,72.79721,-146.72471,1013.17,-999.00,-25.44,yes,no,yes,300234063536320,IMB,CRREL,unknown,North
2017-03-15T07:00:28Z,1489561229,2017,7,0,74.292,74.167,72.79721,-146.72471,1013.65,-999.00,-25.85,yes,no,yes,300234063536320,IMB,CRREL,unknown,North
2017-03-15T07:59:31Z,1489564771,2017,8,0,74.333,74.333,72.79707,-146.72475,1013.98,-999.00,-24.9,yes,no,yes,300234063536320,IMB,CRREL,unknown,North
2017-03-15T09:00:00Z,1489568400,2017,9,0,74.375,74.333,72.79707,-146.72475,1014.39,-999.00,-25.32,yes,no,yes,300234063536320,IMB,CRREL,unknown,North
2017-03-15T10:00:28Z,1489572029,2017,10,0,74.417,74.333,72.79707,-146.72475,1015.0,-999.00,-27.23,yes,no,yes,300234063536320,IMB,CRREL,unknown,North
2017-03-15T10:59:31Z,1489575571,2017,11,0,74.458,74.333,72.79707,-146.72475,1015.41,-999.00,-27.2,yes,no,yes,300234063536320,IMB,CRREL,unknown,North
2017-03-15T12:00:00Z,1489579200,2017,12,0,74.5,74.5,72.79705,-146.72475,1015.89,-999.00,-28.01,yes,no,yes,300234063536320,IMB,CRREL,unknown,North
2017-03-15T13:00:28Z,1489582829,2017,13,0,74.542,74.5,72.79705,-146.72475,1016.57,-999.00,-28.5,yes,no,yes,300234063536320,IMB,CRREL,unknown,North
2017-03-15T13:59:31Z,1489586371,2017,14,0,74.583,74.5,72.79705,-146.72475,1017.31,-999.00,-29.11,yes,no,yes,300234063536320,IMB,CRREL,unknown,North
2017-03-15T15:00:00Z,1489590000,2017,15,0,74.625,74.5,72.79705,-146.72475,1017.86,-999.00,-29.43,yes,no,yes,300234063536320,IMB,CRREL,unknown,North
2017-03-15T16:00:28Z,1489593629,2017,16,0,74.667,74.667,72.79706,-146.72482,1018.67,-999.00,-29.47,yes,no,yes,300234063536320,IMB,CRREL,unknown,North
2017-03-15T16:59:31Z,1489597171,2017,17,0,74.708,74.667,72.79706,-146.72482,1019.15,-999.00,-29.72,yes,no,yes,300234063536320,IMB,CRREL,unknown,North
2017-03-15T18:00:00Z,1489600800,2017,18,0,74.75,74.667,72.79706,-146.72482,1019.89,-999.00,-29.04,yes,no,yes,300234063536320,IMB,CRREL,unknown,North
2017-03-15T19:00:28Z,1489604429,2017,19,0,74.792,74.667,72.79706,-146.72482,1020.36,-999.00,-28.57,yes,no,yes,300234063536320,IMB,CRREL,unknown,North
2017-03-15T19:59:31Z,1489607971,2017,20,0,74.833,74.833,72.79708,-146.72494,1020.84,-999.00,-27.97,yes,no,yes,300234063536320,IMB,CRREL,unknown,North